Hourly Data Report for September 22, 2017

All times are specified in Local Standard Time (LST). Add 1 hour to adjust for Daylight Saving Time where and when it is observed.

RANKIN INLET A
NUNAVUT

62°48'38.000" N
92°06'53.000" W
32.30 m
2303405
71083
YRT

Download Data

Hourly Data (September 2017)
Hourly Data Report for September 22, 2017
Temp Definition
°C
Dew Point Temp Definition
°C
Rel Hum Definition
%
Wind Dir Definition
10's deg

Wind Spd Definition
km/h
Visibility Definition
km
Stn Press Definition
kPa
Hmdx Definition


Wind Chill Definition


Weather Definition


TIME
00:00 Legend Double Dagger 2.6 0.2 84 3 24 24.1 101.40     Cloudy
01:00 Legend Double Dagger 2.4 0.2 85 3 24 24.1 101.41     LegendNANA
02:00 Legend Double Dagger 2.3 0.4 87 4 26 24.1 101.42     LegendNANA
03:00 Legend Double Dagger 2.1 0.1 87 3 25 24.1 101.42     Cloudy
04:00 Legend Double Dagger 2.0 0.1 87 2 26 24.1 101.43     LegendNANA
05:00 Legend Double Dagger 1.9 0.3 90 3 26 24.1 101.45     LegendNANA
06:00 Legend Double Dagger 1.7 0.1 89 2 27 24.1 101.43     Mostly Cloudy
07:00 Legend Double Dagger 1.7 0.2 90 2 26 24.1 101.47     LegendNANA
08:00 Legend Double Dagger 1.6 -0.2 88 1 28 24.1 101.48     LegendNANA
09:00 Legend Double Dagger 1.8 0.0 87 2 27 24.1 101.51     Mostly Cloudy
10:00 Legend Double Dagger 2.2 0.3 88 2 26 24.1 101.54     LegendNANA
11:00 Legend Double Dagger 3.0 0.5 84 3 27 24.1 101.55     LegendNANA
12:00 Legend Double Dagger 3.6 1.0 83 2 22 24.1 101.56     Rain Showers
13:00 Legend Double Dagger 3.3 0.8 83 2 23 24.1 101.57     LegendNANA
14:00 Legend Double Dagger 3.8 0.8 81 1 21 24.1 101.60     LegendNANA
15:00 Legend Double Dagger 4.0 0.3 77 2 15 24.1 101.65     Mostly Cloudy
16:00 Legend Double Dagger 4.0 0.0 76 4 11 24.1 101.68     LegendNANA
17:00 Legend Double Dagger 3.2 1.2 87 5 12 24.1 101.72     LegendNANA
18:00 Legend Double Dagger 3.0 0.6 84 6 8 24.1 101.76     Mostly Cloudy
19:00 Legend Double Dagger 2.6 0.9 89 2 10 24.1 101.77     LegendNANA
20:00 Legend Double Dagger 2.3 0.5 88 2 8 24.1 101.76     LegendNANA
21:00 Legend Double Dagger 1.6 0.2 91 1 4 24.1 101.76     Mainly Clear
22:00 Legend Double Dagger 1.9 -0.3 85 27 4 24.1 101.80     LegendNANA
23:00 Legend Double Dagger 2.1 -1.4 78 25 5 24.1 101.83     LegendNANA

Notes on Data Quality.

Legend

  • E = Estimated
  • M = Missing
  • NA = Not Available
  • ‡ = Partner data that is not subject to review by the National Climate Archives
Date modified: